DW7816 Weather Reports


Display with metric or nautical units.
time (UTC)temp
F
wind
direction
speed
MPH
gust
MPH
rain 1hr
in
rain 24hr
in
rain mn
in
humidity
%
barometer
mb
20260505102005 58 38 0.0 3.0 0.00 0.09 0.10 96 1004.4
20260505100958 59 203 0.0 0.0 0.00 0.09 0.10 95 1004.2
20260505100006 59 203 0.0 0.0 0.00 0.09 0.10 95 1004.0
20260505095005 59 203 0.0 0.0 0.00 0.09 0.10 94 1003.5
20260505094020 59 203 0.0 5.0 0.04 0.09 0.10 93 1003.5
20260505093002 59 290 3.0 10.0 0.04 0.09 0.10 94 1003.1
20260505092000 60 240 4.0 10.0 0.05 0.09 0.09 95 1002.7
20260505090947 60 211 1.0 4.0 0.06 0.08 0.08 94 1004.3
20260505084904 61 264 0.0 4.0 0.23 0.04 0.05 92 1005.3
20260505083845 61 22 0.0 0.0 0.08 0.02 0.02 91 1005.4
20260505082836 62 340 0.0 2.0 0.00 0.00 0.01 89 1005.3
20260505080638 63 204 2.0 10.0 0.00 0.00 0.00 83 1004.6
20260505075632 63 264 1.0 10.0 0.00 0.00 0.00 81 1004.7
20260505074602 63 236 0.0 4.0 0.00 0.00 0.00 81 1004.5
20260505073529 63 263 0.0 0.0 0.00 0.00 0.00 81 1004.5
20260505072544 63 202 0.0 3.0 0.00 0.00 0.00 80 1004.3
20260505071544 63 171 0.0 5.0 0.00 0.00 0.00 81 1004.4
20260505065400 63 206 0.0 5.0 0.00 0.00 0.00 81 1004.3
20260505064412 63 265 0.0 5.0 0.00 0.00 0.00 80 1004.7
20260505063429 63 245 1.0 5.0 0.00 0.00 0.00 80 1005.0
20260505061309 63 162 0.0 2.0 0.00 0.00 0.00 80 1005.2
20260505060300 63 266 1.0 6.0 0.00 0.00 0.00 80 1005.1
20260505055226 63 221 1.0 5.0 0.00 0.00 0.00 80 1005.0
20260505053048 63 238 0.0 5.0 0.00 0.00 0.00 80 1005.1
20260505052038 63 236 1.0 6.0 0.00 0.00 0.00 80 1005.1
20260505051005 63 227 1.0 6.0 0.00 0.00 0.00 81 1005.2
20260505041017 62 247 0.0 1.0 0.00 0.00 0.00 81 1005.9
20260505040031 63 261 0.0 1.0 0.00 0.00 0.00 81 1006.1
20260505035005 63 229 0.0 0.0 0.00 0.00 0.00 79 1006.2
20260505034007 64 232 0.0 0.0 0.00 0.00 0.00 79 1006.3
20260505031835 64 240 0.0 5.0 0.00 0.00 0.00 77 1006.3
20260505025656 64 238 0.0 2.0 0.00 0.00 0.00 78 1006.2
20260505024622 64 202 0.0 0.0 0.00 0.00 0.00 77 1006.1
20260505023619 64 195 0.0 1.0 0.00 0.00 0.00 77 1005.9
20260505022608 64 206 0.0 0.0 0.00 0.00 0.00 77 1005.6
20260505021538 65 206 0.0 0.0 0.00 0.00 0.00 75 1005.6
20260505020544 66 224 0.0 0.0 0.00 0.00 0.00 75 1005.4
20260505015603 67 254 0.0 1.0 0.00 0.00 0.00 74 1005.3
20260505014544 68 254 0.0 1.0 0.00 0.00 0.00 72 1005.1
20260505013542 68 254 0.0 1.0 0.00 0.00 0.00 70 1005.0
20260505012521 69 243 0.0 5.0 0.00 0.00 0.00 67 1004.9
20260505011534 70 249 0.0 5.0 0.00 0.00 0.00 68 1004.7
20260505010522 70 255 0.0 3.0 0.00 0.00 0.00 66 1004.6
20260505005500 71 240 0.0 0.0 0.00 0.00 0.00 65 1004.6
20260505004449 72 243 0.0 7.0 0.00 0.00 0.00 62 1004.3
20260505003433 72 222 1.0 7.0 0.00 0.00 0.00 61 1004.3
20260505002415 73 297 0.0 5.0 0.00 0.00 0.00 60 1004.2
20260505001440 74 244 1.0 8.0 0.00 0.00 0.00 60 1004.2
20260505000440 75 254 1.0 3.0 0.00 0.00 0.00 57 1004.3
20260504234302 76 275 2.0 10.0 0.00 0.00 0.00 53 1004.1
20260504233256 77 196 2.0 10.0 0.00 0.00 0.00 52 1004.1
20260504232258 78 279 1.0 6.0 0.00 0.00 0.00 53 1004.2
20260504231236 78 320 4.0 16.0 0.00 0.00 0.00 51 1004.2
20260504230233 78 238 4.0 16.0 0.00 0.00 0.00 51 1004.3
20260504225253 78 234 3.0 11.0 0.00 0.00 0.00 52 1004.2
20260504224254 79 216 4.0 12.0 0.00 0.00 0.00 50 1004.3
20260504223221 79 293 2.0 12.0 0.00 0.00 0.00 53 1004.2
20260504222201 79 273 4.0 12.0 0.00 0.00 0.00 52 1004.2
20260504221202 79 171 3.0 11.0 0.00 0.00 0.00 53 1004.3
20260504220130 79 205 3.0 14.0 0.00 0.00 0.00 53 1004.4
20260504214056 79 303 4.0 11.0 0.00 0.00 0.00 54 1004.5
20260504213036 80 246 3.0 17.0 0.00 0.00 0.00 55 1004.7
20260504212047 80 278 4.0 17.0 0.00 0.00 0.00 53 1004.6
20260504211046 80 331 3.0 14.0 0.00 0.00 0.00 55 1004.8
20260504210054 80 276 3.0 14.0 0.00 0.00 0.00 56 1004.9
20260504205114 79 250 4.0 13.0 0.00 0.00 0.00 54 1005.0
20260504202921 79 296 5.0 14.0 0.00 0.00 0.00 53 1005.4
20260504201848 79 274 3.0 10.0 0.00 0.00 0.00 56 1005.5
20260504200852 79 316 4.0 14.0 0.00 0.00 0.00 52 1005.6
20260504194729 79 260 5.0 14.0 0.00 0.00 0.00 58 1005.9
20260504193752 79 238 4.0 11.0 0.00 0.00 0.00 54 1005.9
20260504192732 79 23 3.0 12.0 0.00 0.00 0.00 56 1005.9
20260504190529 78 314 5.0 18.0 0.00 0.00 0.00 56 1006.1
20260504185525 78 312 6.0 18.0 0.00 0.00 0.00 52 1006.2
20260504184450 78 184 4.0 15.0 0.00 0.00 0.00 55 1006.2
20260504183514 78 273 4.0 15.0 0.00 0.00 0.00 55 1006.3
20260504182516 78 5 4.0 15.0 0.00 0.00 0.00 51 1006.2
20260504181514 78 302 4.0 15.0 0.00 0.00 0.00 54 1006.2
20260504180506 77 221 5.0 13.0 0.00 0.00 0.00 53 1006.4
20260504175442 77 188 5.0 15.0 0.00 0.00 0.00 55 1006.6
20260504174426 77 116 6.0 15.0 0.00 0.00 0.00 54 1006.7
20260504173358 77 288 5.0 21.0 0.00 0.00 0.00 53 1006.8
20260504172336 76 315 6.0 21.0 0.00 0.00 0.00 54 1006.8
20260504171349 76 190 5.0 20.0 0.00 0.00 0.00 56 1006.9
20260504170353 76 327 5.0 20.0 0.00 0.00 0.00 57 1006.8
20260504160223 74 202 4.0 14.0 0.00 0.00 0.00 56 1007.6
20260504150204 71 295 3.0 12.0 0.00 0.00 0.00 61 1008.3
20260504141045 68 301 4.0 14.0 0.00 0.00 0.00 62 1008.9
20260504130732 64 246 1.0 6.0 0.00 0.00 0.00 70 1009.3